THY1ME LROP-UKBB

Flight info

Callsign THY1ME
Flight time 1h 6m
Altitude 39000
Route DENAK DCT KODRU T34 ATREK N180 SULUM
Aircraft A20N/M-SDE2E3FGHIRWXY/LB1

Departure

Time 2026-05-07 19:22
Airport Bucharest Henri Coandă International Airport (LROP)

Arrival

Time 2026-05-07 20:29
Airport Boryspil International Airport (UKBB)
Time Latitude Longitude Altitude Speed Heading
2026-05-07 18:56 44.57086 26.08239 316 ft 0 kts 263°
2026-05-07 19:15 44.57086 26.08244 316 ft 1 kts 263°
2026-05-07 19:15 44.57087 26.08255 316 ft 1 kts 263°
2026-05-07 19:16 44.57089 26.08273 315 ft 2 kts 263°
2026-05-07 19:16 44.57091 26.08296 315 ft 2 kts 263°
2026-05-07 19:16 44.57090 26.08319 314 ft 2 kts 320°
2026-05-07 19:16 44.57083 26.08324 315 ft 0 kts 353°
2026-05-07 19:19 44.57090 26.08323 314 ft 4 kts 353°
2026-05-07 19:19 44.57164 26.08311 317 ft 17 kts 353°
2026-05-07 19:20 44.57223 26.08378 318 ft 13 kts 77°
2026-05-07 19:20 44.57255 26.08498 318 ft 6 kts 24°
2026-05-07 19:20 44.57294 26.08498 318 ft 16 kts 357°
2026-05-07 19:20 44.57452 26.08474 320 ft 30 kts 352°
2026-05-07 19:21 44.57573 26.08453 320 ft 6 kts 354°
2026-05-07 19:21 44.57574 26.08453 320 ft 0 kts 354°
2026-05-07 19:21 44.57577 26.08453 321 ft 2 kts 354°
2026-05-07 19:21 44.57611 26.08447 321 ft 8 kts 354°
2026-05-07 19:22 44.57666 26.08483 320 ft 9 kts 73°
2026-05-07 19:22 44.57673 26.08610 322 ft 38 kts 82°
2026-05-07 19:22 44.57748 26.09554 317 ft 149 kts 83°
2026-05-07 19:22 44.57870 26.11181 1021 ft 179 kts 84°
2026-05-07 19:23 44.57984 26.13016 2155 ft 191 kts 88°
2026-05-07 19:23 44.58062 26.14804 3199 ft 186 kts 88°
2026-05-07 19:23 44.58184 26.16728 4052 ft 209 kts 84°
2026-05-07 19:23 44.58363 26.18852 4894 ft 230 kts 83°
2026-05-07 19:24 44.58567 26.21186 5674 ft 253 kts 84°
2026-05-07 19:24 44.58780 26.23726 6508 ft 277 kts 84°
2026-05-07 19:24 44.59001 26.26490 7600 ft 288 kts 84°
2026-05-07 19:24 44.59218 26.29311 8971 ft 292 kts 85°
2026-05-07 19:25 44.59439 26.32182 10285 ft 298 kts 85°
2026-05-07 19:25 44.59711 26.35126 11151 ft 320 kts 77°
2026-05-07 19:25 44.60673 26.38077 11855 ft 346 kts 54°
2026-05-07 19:25 44.62454 26.40430 12767 ft 359 kts 32°
2026-05-07 19:26 44.64781 26.41736 13950 ft 364 kts 11°
2026-05-07 19:26 44.67318 26.41829 14982 ft 366 kts 350°
2026-05-07 19:26 44.69706 26.40721 16040 ft 368 kts 330°
2026-05-07 19:26 44.71741 26.38552 17096 ft 369 kts 314°
2026-05-07 19:27 44.73489 26.35858 18156 ft 373 kts 310°
2026-05-07 19:27 44.75391 26.33319 19051 ft 380 kts 320°
2026-05-07 19:27 44.77626 26.31360 19911 ft 386 kts 335°
2026-05-07 19:27 44.80249 26.30274 20507 ft 403 kts 350°
2026-05-07 19:28 44.83137 26.30177 20741 ft 427 kts
2026-05-07 19:28 44.86089 26.31140 21126 ft 443 kts 19°
2026-05-07 19:28 44.88864 26.33111 21898 ft 448 kts 32°
2026-05-07 19:28 44.91286 26.35924 22694 ft 454 kts 45°
2026-05-07 19:29 44.93242 26.39374 23409 ft 460 kts 55°
2026-05-07 19:29 44.95045 26.43143 24032 ft 464 kts 54°
2026-05-07 19:29 44.97027 26.46777 24661 ft 468 kts 49°
2026-05-07 19:29 44.99217 26.50199 25256 ft 471 kts 45°
2026-05-07 19:30 45.01562 26.53503 25607 ft 481 kts 43°
2026-05-07 19:30 45.04026 26.56792 25760 ft 493 kts 42°
2026-05-07 19:30 45.06527 26.60070 26094 ft 496 kts 41°
2026-05-07 19:30 45.09085 26.63415 26444 ft 498 kts 41°
2026-05-07 19:31 45.11637 26.66752 26748 ft 500 kts 41°
2026-05-07 19:31 45.14165 26.70067 27107 ft 499 kts 41°
2026-05-07 19:31 45.16712 26.73420 27502 ft 498 kts 41°
2026-05-07 19:31 45.19251 26.76771 27886 ft 497 kts 41°
2026-05-07 19:32 45.21781 26.80122 28325 ft 494 kts 41°
2026-05-07 19:32 45.24291 26.83450 28694 ft 493 kts 41°
2026-05-07 19:32 45.26797 26.86773 29071 ft 492 kts 41°
2026-05-07 19:32 45.29298 26.90091 29445 ft 491 kts 41°
2026-05-07 19:33 45.31760 26.93363 29816 ft 491 kts 41°
2026-05-07 19:33 45.34255 26.96683 30201 ft 490 kts 41°
2026-05-07 19:33 45.36740 26.99996 30543 ft 489 kts 41°
2026-05-07 19:33 45.39221 27.03309 30905 ft 489 kts 41°
2026-05-07 19:34 45.41699 27.06621 31301 ft 488 kts 41°
2026-05-07 19:34 45.44173 27.09932 31681 ft 487 kts 41°
2026-05-07 19:34 45.46642 27.13238 32117 ft 486 kts 41°
2026-05-07 19:34 45.49106 27.16543 32476 ft 486 kts 41°
2026-05-07 19:35 45.51569 27.19851 32854 ft 486 kts 41°
2026-05-07 19:35 45.54029 27.23157 33229 ft 485 kts 41°
2026-05-07 19:35 45.55656 27.25348 33476 ft 485 kts 41°
2026-05-07 19:35 45.58108 27.28652 33845 ft 484 kts 41°
2026-05-07 19:36 45.61356 27.33036 34073 ft 483 kts 41°
2026-05-07 19:36 45.63011 27.35271 34055 ft 482 kts 41°
2026-05-07 19:36 45.67868 27.41844 34055 ft 482 kts 41°
2026-05-07 19:37 45.72715 27.48430 34055 ft 480 kts 40°
2026-05-07 19:37 45.77567 27.55027 34055 ft 480 kts 40°
2026-05-07 19:38 45.82374 27.61580 34059 ft 479 kts 40°
2026-05-07 19:38 45.87212 27.68194 34420 ft 479 kts 40°
2026-05-07 19:39 45.89590 27.71455 35284 ft 467 kts 40°
2026-05-07 19:39 45.91927 27.74663 35787 ft 460 kts 40°
2026-05-07 19:39 45.94237 27.77834 35992 ft 459 kts 40°
2026-05-07 19:39 45.96546 27.81006 36066 ft 459 kts 40°
2026-05-07 19:40 46.01135 27.87322 36075 ft 458 kts 41°
2026-05-07 19:40 46.05717 27.93648 36067 ft 457 kts 40°
2026-05-07 19:41 46.10310 28.00004 36069 ft 460 kts 40°
2026-05-07 19:41 46.12651 28.03246 36068 ft 471 kts 41°
2026-05-07 19:41 46.15029 28.06544 36068 ft 474 kts 41°
2026-05-07 19:42 46.29703 28.23181 36073 ft 468 kts 32°
2026-05-07 19:42 46.50804 28.45103 36083 ft 467 kts 32°
2026-05-07 19:43 46.70491 28.61443 36081 ft 466 kts 16°
2026-05-07 19:43 46.77261 28.64936 36070 ft 455 kts 17°
2026-05-07 19:44 46.84770 28.68801 36071 ft 456 kts 17°
2026-05-07 19:44 46.96735 28.74957 36068 ft 455 kts 17°
2026-05-07 19:45 47.08643 28.81114 36072 ft 455 kts 17°
2026-05-07 19:45 47.15797 28.84830 36068 ft 453 kts 17°
2026-05-07 19:46 47.21740 28.87930 36071 ft 453 kts 17°
2026-05-07 19:46 47.27693 28.91030 36072 ft 457 kts 17°
2026-05-07 19:47 47.33588 28.94113 36078 ft 440 kts 17°
2026-05-07 19:47 47.39379 28.97144 36074 ft 443 kts 17°
2026-05-07 19:48 47.45191 29.00196 36066 ft 443 kts 17°
2026-05-07 19:48 47.50962 29.03234 36075 ft 443 kts 17°
2026-05-07 19:49 47.56772 29.06300 36075 ft 441 kts 17°
2026-05-07 19:49 47.62555 29.09363 36076 ft 442 kts 17°
2026-05-07 19:50 47.68346 29.12441 36078 ft 441 kts 17°
2026-05-07 19:50 47.74097 29.15504 36070 ft 442 kts 17°
2026-05-07 19:51 47.79873 29.18588 36073 ft 440 kts 17°
2026-05-07 19:51 47.85636 29.21671 35867 ft 437 kts 17°
2026-05-07 19:52 47.88467 29.23295 35288 ft 437 kts 21°
2026-05-07 19:52 47.91170 29.25373 34542 ft 439 kts 27°
2026-05-07 19:52 47.93826 29.27616 33685 ft 439 kts 26°
2026-05-07 19:52 47.96498 29.29848 32742 ft 440 kts 27°
2026-05-07 19:53 47.99185 29.32090 31724 ft 443 kts 27°
2026-05-07 19:53 48.01891 29.34351 30657 ft 446 kts 27°
2026-05-07 19:53 48.04569 29.36595 29700 ft 447 kts 27°
2026-05-07 19:53 48.07263 29.38858 28894 ft 441 kts 28°
2026-05-07 19:54 48.09927 29.41099 28100 ft 436 kts 28°
2026-05-07 19:54 48.12559 29.43315 27325 ft 431 kts 28°
2026-05-07 19:54 48.15157 29.45506 26566 ft 426 kts 28°
2026-05-07 19:54 48.17741 29.47685 25815 ft 422 kts 28°
2026-05-07 19:55 48.20287 29.49835 25100 ft 418 kts 28°
2026-05-07 19:55 48.22806 29.51965 24399 ft 414 kts 28°
2026-05-07 19:55 48.25269 29.54050 23719 ft 410 kts 28°
2026-05-07 19:55 48.27745 29.56147 22775 ft 409 kts 29°
2026-05-07 19:56 48.30227 29.58250 21911 ft 408 kts 29°
2026-05-07 19:56 48.32685 29.60336 21170 ft 404 kts 29°
2026-05-07 19:56 48.35121 29.62410 20422 ft 401 kts 29°
2026-05-07 19:56 48.37530 29.64461 19784 ft 394 kts 30°
2026-05-07 19:57 48.39909 29.66493 19065 ft 392 kts 30°
2026-05-07 19:57 48.42273 29.68510 18354 ft 389 kts 30°
2026-05-07 19:57 48.44627 29.70519 17602 ft 386 kts 30°
2026-05-07 19:57 48.46927 29.72487 16894 ft 382 kts 30°
2026-05-07 19:58 48.49229 29.74460 16221 ft 378 kts 30°
2026-05-07 19:58 48.51503 29.76410 15558 ft 374 kts 30°
2026-05-07 19:58 48.53747 29.78336 15215 ft 371 kts 30°
2026-05-07 19:58 48.55979 29.80254 15093 ft 372 kts 30°
2026-05-07 19:59 48.58231 29.82191 15075 ft 372 kts 30°
2026-05-07 19:59 48.60476 29.84124 15077 ft 372 kts 30°
2026-05-07 19:59 48.62730 29.86065 15071 ft 372 kts 30°
2026-05-07 19:59 48.64974 29.88000 15077 ft 372 kts 30°
2026-05-07 20:00 48.67229 29.89947 15071 ft 372 kts 30°
2026-05-07 20:00 48.69478 29.91891 15077 ft 372 kts 30°
2026-05-07 20:00 48.71727 29.93837 15075 ft 373 kts 30°
2026-05-07 20:00 48.73987 29.95794 15073 ft 372 kts 30°
2026-05-07 20:01 48.76235 29.97743 15077 ft 371 kts 30°
2026-05-07 20:01 48.78478 29.99689 15054 ft 372 kts 30°
2026-05-07 20:01 48.80695 30.01613 14867 ft 371 kts 30°
2026-05-07 20:01 48.82925 30.03551 14471 ft 366 kts 30°
2026-05-07 20:02 48.85129 30.05468 13868 ft 364 kts 30°
2026-05-07 20:02 48.87319 30.07376 13307 ft 359 kts 30°
2026-05-07 20:02 48.89503 30.09280 13116 ft 363 kts 30°
2026-05-07 20:02 48.91672 30.11173 13073 ft 362 kts 30°
2026-05-07 20:03 48.93858 30.13083 13064 ft 362 kts 30°
2026-05-07 20:03 48.96051 30.15001 13064 ft 362 kts 30°
2026-05-07 20:03 48.98234 30.16911 13064 ft 362 kts 30°
2026-05-07 20:03 49.00417 30.18823 13064 ft 362 kts 30°
2026-05-07 20:04 49.02598 30.20736 13064 ft 362 kts 30°
2026-05-07 20:04 49.04798 30.22614 13063 ft 362 kts 26°
2026-05-07 20:04 49.07107 30.24014 13062 ft 362 kts 19°
2026-05-07 20:04 49.09506 30.25194 13062 ft 363 kts 18°
2026-05-07 20:05 49.11910 30.26362 13061 ft 362 kts 18°
2026-05-07 20:05 49.14303 30.27580 13062 ft 362 kts 19°
2026-05-07 20:05 49.16685 30.28847 13061 ft 362 kts 19°
2026-05-07 20:05 49.19057 30.30141 13061 ft 362 kts 20°
2026-05-07 20:06 49.21427 30.31451 13062 ft 362 kts 20°
2026-05-07 20:06 49.23797 30.32767 13062 ft 362 kts 20°
2026-05-07 20:06 49.26169 30.34087 13058 ft 362 kts 20°
2026-05-07 20:06 49.28511 30.35389 13058 ft 362 kts 20°
2026-05-07 20:07 49.30879 30.36708 13060 ft 362 kts 20°
2026-05-07 20:07 49.33247 30.38027 13053 ft 362 kts 20°
2026-05-07 20:07 49.35619 30.39349 13053 ft 362 kts 20°
2026-05-07 20:07 49.37998 30.40676 13053 ft 362 kts 20°
2026-05-07 20:08 49.40360 30.41995 13053 ft 362 kts 20°
2026-05-07 20:08 49.42726 30.43319 13053 ft 362 kts 20°
2026-05-07 20:08 49.45098 30.44647 13053 ft 362 kts 20°
2026-05-07 20:08 49.47466 30.45973 13054 ft 362 kts 20°
2026-05-07 20:09 49.49813 30.47290 13054 ft 366 kts 20°
2026-05-07 20:09 49.52205 30.48634 13053 ft 366 kts 20°
2026-05-07 20:09 49.54592 30.49975 13053 ft 365 kts 20°
2026-05-07 20:10 49.59353 30.52655 12740 ft 361 kts 20°
2026-05-07 20:10 49.61697 30.53978 12223 ft 357 kts 20°
2026-05-07 20:10 49.64017 30.55288 11624 ft 353 kts 20°
2026-05-07 20:10 49.66313 30.56586 11012 ft 348 kts 20°
2026-05-07 20:11 49.68573 30.57864 10437 ft 344 kts 20°
2026-05-07 20:11 49.70772 30.59108 10239 ft 327 kts 20°
2026-05-07 20:11 49.72856 30.60290 10086 ft 311 kts 20°
2026-05-07 20:11 49.74842 30.61416 9884 ft 298 kts 20°
2026-05-07 20:12 49.76774 30.62513 9437 ft 294 kts 20°
2026-05-07 20:12 49.78669 30.63589 8921 ft 294 kts 20°
2026-05-07 20:12 49.80587 30.64679 8473 ft 291 kts 20°
2026-05-07 20:12 49.82477 30.65755 8103 ft 287 kts 20°
2026-05-07 20:13 49.84363 30.66829 7655 ft 289 kts 20°
2026-05-07 20:13 49.86247 30.67903 7219 ft 288 kts 20°
2026-05-07 20:13 49.88127 30.68975 6780 ft 286 kts 20°
2026-05-07 20:13 49.89993 30.70041 6328 ft 285 kts 20°
2026-05-07 20:14 49.91846 30.71099 6086 ft 285 kts 20°
2026-05-07 20:14 49.93710 30.72166 6024 ft 286 kts 20°
2026-05-07 20:14 49.95576 30.73234 6022 ft 285 kts 20°
2026-05-07 20:14 49.97415 30.74288 6013 ft 285 kts 20°
2026-05-07 20:15 49.99282 30.75358 6016 ft 285 kts 20°
2026-05-07 20:15 50.01145 30.76427 6015 ft 285 kts 20°
2026-05-07 20:15 50.03006 30.77497 6016 ft 285 kts 20°
2026-05-07 20:15 50.04871 30.78567 6012 ft 287 kts 20°
2026-05-07 20:16 50.06747 30.79647 6015 ft 287 kts 20°
2026-05-07 20:16 50.08619 30.80725 6013 ft 287 kts 20°
2026-05-07 20:16 50.10491 30.81803 6013 ft 287 kts 20°
2026-05-07 20:16 50.12350 30.82868 6013 ft 287 kts 20°
2026-05-07 20:17 50.14227 30.83949 6010 ft 286 kts 20°
2026-05-07 20:17 50.16099 30.85033 6011 ft 287 kts 20°
2026-05-07 20:17 50.17970 30.86119 6011 ft 287 kts 20°
2026-05-07 20:17 50.19841 30.87203 6011 ft 287 kts 20°
2026-05-07 20:18 50.21719 30.88291 6007 ft 287 kts 20°
2026-05-07 20:18 50.23589 30.89375 6008 ft 287 kts 20°
2026-05-07 20:18 50.25461 30.90461 6008 ft 287 kts 20°
2026-05-07 20:18 50.27339 30.91550 6007 ft 288 kts 20°
2026-05-07 20:19 50.29195 30.92629 6008 ft 289 kts 20°
2026-05-07 20:19 50.31073 30.93721 6009 ft 288 kts 20°
2026-05-07 20:19 50.32933 30.94804 5968 ft 281 kts 20°
2026-05-07 20:19 50.34728 30.95849 5872 ft 269 kts 20°
2026-05-07 20:20 50.36446 30.96855 5757 ft 257 kts 20°
2026-05-07 20:20 50.38092 30.97816 5553 ft 250 kts 20°
2026-05-07 20:20 50.39714 30.98764 5257 ft 248 kts 20°
2026-05-07 20:20 50.41339 30.99716 4903 ft 250 kts 20°
2026-05-07 20:21 50.42970 31.00671 4563 ft 250 kts 19°
2026-05-07 20:21 50.44603 31.01623 4232 ft 250 kts 19°
2026-05-07 20:21 50.46235 31.02576 3932 ft 250 kts 19°
2026-05-07 20:21 50.47894 31.03418 3586 ft 251 kts 10°
2026-05-07 20:22 50.49603 31.03685 3271 ft 250 kts 360°
2026-05-07 20:22 50.51331 31.03796 3047 ft 247 kts 360°
2026-05-07 20:22 50.53066 31.03729 3001 ft 248 kts 343°
2026-05-07 20:22 50.54544 31.02526 3005 ft 236 kts 311°
2026-05-07 20:23 50.55373 31.00396 2995 ft 225 kts 279°
2026-05-07 20:23 50.55353 30.98017 2993 ft 215 kts 247°
2026-05-07 20:23 50.54428 30.96267 2996 ft 212 kts 210°
2026-05-07 20:23 50.53070 30.95348 2993 ft 212 kts 200°
2026-05-07 20:24 50.52168 30.94875 2993 ft 201 kts 199°
2026-05-07 20:24 50.50882 30.94251 2985 ft 185 kts 198°
2026-05-07 20:24 50.49335 30.93553 2967 ft 166 kts 197°
2026-05-07 20:24 50.48270 30.93110 2846 ft 146 kts 196°
2026-05-07 20:25 50.47375 30.92757 2649 ft 121 kts 197°
2026-05-07 20:25 50.46536 30.92435 2479 ft 123 kts 195°
2026-05-07 20:25 50.45983 30.92243 2368 ft 123 kts 195°
2026-05-07 20:25 50.45149 30.91986 2205 ft 122 kts 194°
2026-05-07 20:26 50.44313 30.91761 2040 ft 122 kts 192°
2026-05-07 20:26 50.43483 30.91571 1876 ft 120 kts 192°
2026-05-07 20:26 50.42656 30.91408 1721 ft 120 kts 191°
2026-05-07 20:26 50.41816 30.91261 1563 ft 122 kts 189°
2026-05-07 20:27 50.40965 30.91134 1396 ft 123 kts 188°
2026-05-07 20:27 50.40100 30.91021 1236 ft 127 kts 186°
2026-05-07 20:27 50.39207 30.90913 1074 ft 130 kts 186°
2026-05-07 20:27 50.38298 30.90818 938 ft 133 kts 182°
2026-05-07 20:28 50.37382 30.90753 737 ft 134 kts 184°
2026-05-07 20:28 50.36435 30.90679 591 ft 135 kts 183°
2026-05-07 20:28 50.35500 30.90605 421 ft 133 kts 182°
2026-05-07 20:28 50.34757 30.90550 422 ft 67 kts 183°
2026-05-07 20:29 50.34573 30.90535 420 ft 0 kts 183°
2026-05-07 20:29 50.34485 30.90528 423 ft 32 kts 183°
2026-05-07 20:29 50.34253 30.90485 419 ft 28 kts 196°
2026-05-07 20:29 50.34134 30.90390 428 ft 23 kts 213°
2026-05-07 20:30 50.34093 30.90349 426 ft 8 kts 212°
2026-05-07 20:30 50.34069 30.90326 431 ft 4 kts 212°
2026-05-07 20:30 50.34062 30.90319 428 ft 0 kts 212°
2026-05-07 20:31 50.34049 30.90306 429 ft 8 kts 213°
2026-05-07 20:32 50.34046 30.90202 426 ft 11 kts 306°
2026-05-07 20:32 50.34134 30.90180 433 ft 17 kts
2026-05-07 20:32 50.34279 30.90193 429 ft 24 kts
2026-05-07 20:32 50.34426 30.90204 426 ft 22 kts
2026-05-07 20:33 50.34559 30.90212 430 ft 1 kts
2026-05-07 20:33 50.34572 30.90237 423 ft 9 kts 55°
2026-05-07 20:33 50.34573 30.90260 428 ft 4 kts 96°
2026-05-07 20:33 50.34559 30.90277 425 ft 3 kts 188°
2026-05-07 20:34 50.34534 30.90235 431 ft 13 kts 221°
2026-05-07 20:34 50.34379 30.90199 420 ft 27 kts 182°
2026-05-07 20:34 50.34137 30.90182 433 ft 41 kts 183°
2026-05-07 20:34 50.33900 30.90164 423 ft 24 kts 183°
2026-05-07 20:35 50.33750 30.90144 428 ft 18 kts 200°
2026-05-07 20:35 50.33726 30.90104 430 ft 5 kts 248°
2026-05-07 20:35 50.33666 30.90029 431 ft 9 kts 172°
2026-05-07 20:35 50.33600 30.89966 424 ft 15 kts 249°
2026-05-07 20:36 50.33610 30.89714 424 ft 22 kts 273°
2026-05-07 20:36 50.33619 30.89611 431 ft 5 kts 305°
2026-05-07 20:36 50.33664 30.89596 428 ft 10 kts
2026-05-07 20:36 50.33701 30.89593 425 ft 3 kts 337°
2026-05-07 20:37 50.33704 30.89578 430 ft 1 kts 287°
2026-05-07 20:37 50.33704 30.89561 429 ft 0 kts 263°